Location: Wildcat Hills Observatory
(41.6350°N, 103.6812°W)
Time: 14:36:07
(UTC-06:00)

Daily predictions for brighter satellites

Satellite Brightness Start Highest point End
(mag) Time Altitude Azimuth Time Altitude Azimuth Time Altitude Azimuth
Cosmos 1975 Rocket 4.2 20:43:59 10° SSW 20:48:19 49° W 20:52:40 10° N
Aureole 3 Rocket 4.4 20:43:18 10° SSE 20:49:27 37° E 20:54:00 10° NNE
USA 186 2.8 20:51:18 10° S 20:54:25 47° W 20:57:31 10° NNW
ISS -2.1 20:52:58 10° SSE 20:54:51 14° SE 20:56:43 10° E
Aureole 1 Rocket 3.9 20:52:35 10° SSE 20:54:54 17° ESE 20:57:02 10° ENE
Cosmos 1666 3.7 20:55:25 10° NNE 20:58:42 28° ENE 21:01:54 10° SE
Cosmos 1538 Rocket 4.3 20:54:01 10° SSW 20:59:10 75° WNW 21:04:22 10° NNE
NOSS 2-2 (E) 3.4 20:56:33 10° SSW 21:00:30 65° ESE 21:05:04 10° NE
Meteor 2-4 Rocket 4.4 20:57:12 10° SSE 21:02:15 36° E 21:07:28 10° NNE
DEBRIS 3.5 21:01:33 10° SW 21:04:40 63° SE 21:14:15 10° ENE
OAO 2 Rocket 4.0 21:00:59 10° SW 21:05:24 33° SSE 21:09:53 10° ESE
CZ-4B DEB 2.5 21:04:41 10° SSE 21:07:41 90° ENE 21:10:41 10° NNW
Cosmos 1437 2.6 21:04:32 10° S 21:07:44 81° E 21:10:58 10° NNE
Cosmos 923 Rocket 4.1 21:02:32 10° S 21:07:45 59° ESE 21:12:59 10° NNE
Cosmos 1536 Rocket 3.5 21:05:35 10° S 21:09:53 87° ESE 21:14:15 10° N
Helios 1A 3.4 21:07:57 10° S 21:12:08 64° WSW 21:16:21 10° NNW
Lacrosse 5 rocket 4.5 21:10:01 10° NW 21:12:30 14° NNW 21:15:01 10° NNE
Meteor 1-29 2.9 21:10:29 10° NNE 21:13:53 86° WNW 21:17:14 10° SSW
Cosmos 2184 Rocket 4.1 21:10:49 10° N 21:17:10 67° E 21:23:25 10° SSE
Cosmos 2074 Rocket 4.0 21:11:03 10° N 21:17:17 69° E 21:23:31 10° SSE
YAOGAN 6 2.4 21:16:33 11° SSE 21:19:56 78° ENE 21:23:27 10° N
SAR-Lupe-4 4.2 21:16:33 10° S 21:20:03 56° W 21:23:36 10° NNW
Meteor 1-19 Rocket 4.3 21:17:51 10° S 21:23:40 78° E 21:29:26 10° NNE
ERS-1 Rocket 3.0 21:21:29 12° SSE 21:26:10 70° ENE 21:31:11 10° N
Cosmos 1656 Rocket 3.7 21:20:48 10° NNW 21:26:16 84° WSW 21:31:14 13° SSE
USA 40 PKM 4.4 21:23:39 10° SW 21:27:02 84° NW 21:31:46 10° NE
Cosmos 405 Rocket 2.6 21:23:21 10° S 21:27:05 87° W 21:30:55 10° N
MetOp-A 4.3 21:26:30 14° SSE 21:30:57 59° ENE 21:36:14 10° N
Cosmos 1818 4.3 21:26:08 10° SW 21:31:29 59° NW 21:36:54 10° NNE
Meteor 1-23 Rocket 4.5 21:26:14 10° SSE 21:31:34 49° E 21:36:56 10° NNE
Resurs 01 Rocket 4.3 21:29:31 10° SW 21:32:17 16° W 21:35:04 10° NW
Intercosmos 24 4.3 21:32:05 10° N 21:35:57 41° ENE 21:37:49 22° SE
H-2A R/B 3.0 21:33:29 17° ESE 21:36:26 30° ENE 21:40:45 10° N
Cosmos 1025 Rocket 3.2 21:35:25 16° SSE 21:38:37 48° E 21:42:44 10° NNE
Cosmos 1441 Rocket 3.1 21:36:21 12° S 21:39:45 67° E 21:43:28 10° NNE
Cosmos 192 4.3 21:35:03 10° S 21:39:52 60° ESE 21:44:42 10° NNE
Cosmos 2112 Rocket 3.9 21:35:20 10° SSW 21:40:33 76° ESE 21:45:46 10° NNE
MOS 1-B Rocket 4.0 21:36:34 16° SSE 21:41:10 69° ENE 21:47:28 10° N
PSLV R/B 2.9 21:38:13 10° W 21:41:21 80° S 21:43:03 24° E
Cosmos 1943 Rocket 3.9 21:37:35 10° NW 21:42:12 27° WSW 21:46:46 10° SSW
NOSS 2-2 (D) 4.2 21:39:38 10° SW 21:43:35 56° NW 21:48:10 10° NNE
Helios 1B rocket 4.4 21:43:04 10° N 21:46:43 31° WNW 21:50:21 10° SW
CENTAUR R/B 3.4 21:41:52 10° NW 21:49:44 66° WSW 21:56:30 17° SSE
SL-27 R/B 2.4 21:48:22 10° SSW 21:52:02 88° ESE 21:55:43 10° NNE
Nadezhda 1 Rocket 4.1 21:46:08 10° S 21:52:29 88° W 21:58:56 10° N
NOAA 11 4.2 21:49:36 17° SSE 21:53:55 85° WSW 21:59:23 10° NNW
SL-08 RB Rocket 3.9 21:52:50 25° SE 21:55:13 56° ENE 21:59:36 10° N
ARGOS 3.1 21:55:04 22° SSE 21:58:41 78° ENE 22:04:07 10° N
COSMOS 2406 3.7 21:53:12 10° SW 21:58:52 62° WNW 22:04:32 10° NNE
Cosmos 2154 Rocket 4.0 21:54:25 10° N 22:00:49 78° E 22:05:15 21° SSE
H-2A R/B 3.5 22:01:56 21° E 22:03:33 26° ENE 22:07:18 10° N
Cosmos 1680 Rocket 4.1 21:59:02 10° SSW 22:04:10 57° WNW 22:09:20 10° NNE
SPOT 5 2.5 22:02:18 27° SSE 22:04:36 86° E 22:08:58 10° NNW
Cosmos 2056 Rocket 3.7 22:02:01 10° NNW 22:07:08 57° ENE 22:09:30 30° SE
Cosmos 405 3.3 22:03:49 10° NNW 22:07:21 62° W 22:08:58 29° SSW
Cosmos 2278 4.4 22:02:27 10° N 22:07:51 41° ENE 22:10:40 25° ESE
Cosmos 2082 Rocket 3.2 22:09:49 25° ESE 22:10:38 26° ESE 22:15:14 10° NE
Terra 2.6 22:16:04 29° ESE 22:17:40 38° ENE 22:22:02 10° N
Tiangong 2 1.1 22:15:01 10° WSW 22:17:53 61° SSW 22:17:53 61° SSW
COSMOS 2487 3.7 22:21:12 28° ENE 22:21:12 28° ENE 22:23:38 10° NE
Cosmos 1437 Rocket 2.8 22:19:52 10° NNW 22:23:42 73° W 22:24:52 42° S
Meteor 2-19 Rocket 4.4 22:18:54 10° N 22:25:04 90° SSE 22:28:27 29° S
Cosmos 2369 4.0 22:20:54 10° NNW 22:26:34 56° ENE 22:28:55 34° SE
SPOT 1/Viking Rocket 3.5 22:24:55 32° S 22:27:25 82° WSW 22:32:36 10° NNW
Okean 2 3.9 22:26:10 22° SSW 22:28:38 56° W 22:32:40 10° N
Cosmos 2341 Rocket 4.0 22:22:38 10° N 22:29:01 88° W 22:32:34 29° S
Cosmos 967 Rocket 4.4 22:22:57 10° SSW 22:29:10 70° ESE 22:35:24 10° NE
ISS -3.5 22:27:42 10° WSW 22:30:59 67° NNW 22:34:16 10° NE
IGS 5A 3.8 22:33:12 43° ESE 22:33:52 48° ENE 22:37:54 10° N
Cosmos 1697 Rocket 3.7 22:30:53 10° N 22:36:00 35° ENE 22:38:09 26° E
Cosmos 839 Rocket 4.3 22:31:10 10° NNW 22:37:45 82° ENE 22:41:32 33° SE
Cosmos 1452 Rocket 4.0 22:34:18 10° N 22:39:22 46° ENE 22:40:54 36° ESE
Cosmos 1892 Rocket 3.7 22:38:46 34° SSW 22:40:38 71° W 22:45:03 10° N
Cosmos 2228 2.9 22:38:42 10° N 22:43:02 82° E 22:43:46 60° SSE
Cosmos 2218 Rocket 4.0 22:39:08 10° N 22:45:15 65° E 22:47:26 40° SE
Cosmos 1602 Rocket 4.0 22:47:45 43° E 22:47:45 43° E 22:51:48 10° NNE
deb Chang Zheng 4 3.5 22:44:17 10° NNE 22:48:33 59° ESE 22:48:47 58° ESE
Cosmos 921 Rocket 3.0 22:44:22 10° NNW 22:48:52 81° WSW 22:49:41 59° S
OAO 2 Rocket 4.0 22:45:04 10° WSW 22:48:59 36° SSW 22:48:59 36° SSW
Cosmos 1833 Rocket 2.7 22:53:01 47° SSE 22:54:09 56° ESE 22:59:39 10° NNE
Cosmos 1656 3.7 22:50:52 10° NNW 22:56:19 69° ENE 22:57:43 49° SE
Cosmos 1066 Rocket 4.1 22:56:59 45° S 22:58:47 85° E 23:04:24 10° N
Cosmos 1766 4.1 22:57:18 10° N 23:00:37 38° ENE 23:00:37 38° ENE
Cosmos 2181 Rocket 4.4 22:57:55 22° SSW 23:02:09 60° W 23:08:24 10° N
SL-19 R/B 4.0 22:58:57 10° NNE 23:04:23 87° ESE 23:05:56 48° SSW
CZ-4 R/B 3.9 22:59:55 10° NNE 23:04:57 71° ESE 23:05:43 60° SSE
Meteor 1-4 Rocket 2.8 23:01:31 10° N 23:04:39 64° N 23:04:39 64° N
Cosmos 2058 Rocket 4.0 23:08:06 10° NNW 23:12:13 39° W 23:13:09 35° WSW
SL-19 R/B 4.4 23:11:59 79° S 23:12:13 85° WSW 23:16:18 10° NNW
CARTOSAT-1 3.9 23:13:46 52° WSW 23:14:10 54° W 23:18:25 10° NNW
Nadezhda 3 Rocket 4.4 23:13:55 42° ESE 23:15:04 47° E 23:21:07 10° NNE
Cosmos 1809 Rocket 4.4 23:09:14 10° N 23:15:19 80° W 23:17:07 48° S
H-2A R/B 3.3 23:14:06 25° SW 23:15:47 31° W 23:20:13 10° NNW
Meteor 2-14 Rocket 4.3 23:11:40 10° N 23:17:47 78° E 23:19:12 54° SSE
USA 267 3.2 23:12:21 10° NE 23:18:50 62° SE 23:21:19 38° SSW
Cosmos 1980 Rocket 2.7 23:17:29 10° NNW 23:22:59 48° ENE 23:24:11 42° E
SeaSat 1 3.5 23:26:26 30° E 23:27:33 34° NE 23:31:59 10° N
Cosmos 2322 Rocket 4.0 23:26:43 10° N 23:31:11 23° NE 23:33:29 18° E
CZ-4C R/B 4.1 23:37:42 43° NNW 23:37:42 43° NNW 23:40:13 10° NNW
Cosmos 1805 4.1 23:33:35 10° N 23:36:34 45° NNE 23:36:34 45° NNE
Meteor 2-16 Rocket 4.4 23:31:18 10° N 23:37:28 84° W 23:38:44 59° S
Meteor 1-22 Rocket 4.3 23:34:07 10° NNW 23:39:19 59° W 23:40:05 53° SW
H-2A R/B 3.4 23:39:03 31° WSW 23:39:25 31° W 23:43:27 10° NW
CZ-2C R/B 4.0 23:38:44 34° E 23:39:36 37° ENE 23:44:40 10° N
Cosmos 1812 Rocket 3.8 23:36:14 10° NNW 23:40:32 66° WNW 23:40:32 66° WNW
SME Rocket 3.7 23:44:52 61° ESE 23:45:25 66° ENE 23:49:48 10° N
Cosmos 1544 4.3 23:43:08 10° N 23:45:36 41° N 23:45:36 41° N
USA 229 DEB 3.9 23:40:03 10° NNW 23:47:12 69° NE 23:49:37 44° ESE
USA 229 3.9 23:40:09 10° NNW 23:47:17 68° NE 23:49:44 44° ESE
Cosmos 389 Rocket 4.3 23:45:19 10° N 23:47:15 27° NNE 23:47:15 27° NNE
USA 234 4.2 23:47:53 13° E 23:53:20 43° NNE 23:59:25 10° NW
Cosmos 2082 Rocket 3.1 23:51:36 26° WSW 23:54:25 45° WNW 23:59:51 10° NNE
Terra 3.5 23:54:57 22° WSW 23:55:29 23° W 23:59:15 10° NW
